Weather History for Amritsar, India

Change the Weather History Date:

Saturday, November 23, 2013

  Actual Average Record
Temperature  
Mean Temperature 64 °F -  
Max Temperature 79 °F 67 °F 84 °F (2007)
Min Temperature 49 °F 43 °F 42 °F (1996)
Degree Days  
Heating Degree Days 1    
Growing Degree Days 14 (Base 50)    
Moisture  
Dew Point 54 °F    
Average Humidity 77    
Maximum Humidity 100    
Minimum Humidity 29    
Precipitation  
Precipitation 0.00 in 0.02 in - ()
Sea Level Pressure  
Sea Level Pressure 29.99 in    
Wind  
Wind Speed 1 mph ()    
Max Wind Speed 8 mph    
Max Gust Speed -    
Visibility 1.2 miles    
Events Fog    
Averages and records for this station are not official NWS values.
T = Trace of Precipitation, MM = Missing Value Source: Averaged Metar Reports

Daily Weather History Graph

Daily Weather History Graph

Search for Another Location

Airport:

Trip Planner

Search our weather history database for the weather conditions in past years. The results will help you decide how hot, cold, wet, or windy it might be!

Date:

Astronomy

Nov. 23, 2013 Rise Set
Actual Time 7:05 AM IST 5:28 PM IST
Civil Twilight 6:39 AM IST 5:54 PM IST
Nautical Twilight 6:09 AM IST 6:24 PM IST
Astronomical Twilight 5:40 AM IST 6:53 PM IST
Moon 10:24 PM IST (11/23) 11:13 AM IST (11/23)
Length of Visible Light 11h 14m
Length of Day
10h 22m
Waning Gibbous, 73% of the Moon is Illuminated
Nov 23
Waning Gibbous
Nov 26
Last Quarter
Dec 3
New
Dec 9
First Quarter
Dec 17
Full

Hourly Weather History & Observations

Time (IST) Temp. Dew Point Humidity Pressure Visibility Wind Dir Wind Speed Gust Speed Precip Events Conditions
12:00 AM 55.4 °F 55.4 °F 100% 30.04 in 1.1 mi Calm Calm - N/A   Scattered Clouds
12:30 AM 55.4 °F 55.4 °F 100% 30.04 in 1.1 mi Calm Calm - N/A   Scattered Clouds
1:00 AM 55.4 °F 55.4 °F 100% 30.01 in 1.1 mi Calm Calm - N/A   Scattered Clouds
1:30 AM 55.4 °F 55.4 °F 100% 30.01 in 1.1 mi Calm Calm - N/A   Scattered Clouds
2:00 AM - - N/A% 30.01 in 0.7 mi Calm Calm - N/A   Scattered Clouds
2:30 AM 53.6 °F 53.6 °F 100% 30.01 in 0.7 mi Calm Calm - N/A   Scattered Clouds
3:00 AM 53.6 °F 53.6 °F 100% 30.01 in 0.7 mi Calm Calm - N/A   Scattered Clouds
3:30 AM 53.6 °F 53.6 °F 100% 30.01 in 0.7 mi Calm Calm - N/A   Scattered Clouds
4:00 AM 51.8 °F 51.8 °F 100% 29.98 in 0.7 mi Calm Calm - N/A   Scattered Clouds
5:00 AM 51.8 °F 51.8 °F 100% 29.98 in 0.6 mi Calm Calm - N/A   Scattered Clouds
5:30 AM 51 °F 51 °F 100% 30.00 in 1 mi Calm Calm - -   Mist
5:30 AM 51.8 °F 51.8 °F 100% 29.98 in 0.6 mi Calm Calm - N/A   Scattered Clouds
6:00 AM 51.8 °F 51.8 °F 100% 29.98 in 0.6 mi Calm Calm - N/A   Scattered Clouds
6:30 AM 51.8 °F 51.8 °F 100% 30.01 in 0.6 mi Calm Calm - N/A   Scattered Clouds
7:00 AM 51.8 °F 51.8 °F 100% 30.01 in 0.4 mi Calm Calm - N/A Fog Fog
7:30 AM 51.8 °F 51.8 °F 100% 30.01 in 0.4 mi Calm Calm - N/A Fog Fog
8:00 AM 51.8 °F 51.8 °F 100% 30.04 in 0.2 mi Calm Calm - N/A Fog Fog
8:30 AM 53 °F 53 °F 99% 30.04 in 0 mi Calm Calm - - Fog Partial Fog
8:30 AM 53.6 °F 53.6 °F 100% 30.04 in 0.2 mi Calm Calm - N/A Fog Fog
9:00 AM 57.2 °F 57.2 °F 100% 30.04 in 0.2 mi Calm Calm - N/A Fog Fog
9:30 AM 62.6 °F 62.6 °F 100% 30.04 in 0.2 mi Calm Calm - N/A Fog Fog
10:00 AM 66.2 °F 66.2 °F 100% 30.06 in 0.4 mi Calm Calm - N/A Fog Fog
10:30 AM 69.8 °F 60.8 °F 73% 30.04 in 0.5 mi Calm Calm - N/A Fog Fog
11:00 AM 71.6 °F 59.0 °F 64% 30.04 in 0.5 mi Calm Calm - N/A Fog Fog
11:30 AM 73 °F 56 °F 45% 30.00 in 1 mi Calm Calm - -   Haze
11:30 AM 73.4 °F 57.2 °F 57% 30.04 in 0.7 mi Variable 1.2 mph - N/A   Haze
12:00 PM 73.4 °F 57.2 °F 57% 30.01 in 0.7 mi Variable 2.3 mph - N/A   Haze
12:30 PM 75.2 °F 55.4 °F 50% 30.01 in 0.9 mi WNW 5.8 mph - N/A   Haze
1:00 PM 77.0 °F 51.8 °F 41% 29.98 in 1.2 mi West 4.6 mph - N/A   Haze
1:30 PM 77.0 °F 50.0 °F 39% 29.95 in 1.2 mi Variable 3.5 mph - N/A   Haze
2:00 PM 78.8 °F 50.0 °F 36% 29.95 in 2.2 mi WNW 6.9 mph - N/A   Haze
2:30 PM 79 °F 52 °F 29% 29.91 in 1 mi WNW 5.8 mph - -   Scattered Clouds
2:30 PM 78.8 °F 51.8 °F 39% 29.95 in 2.2 mi WNW 5.8 mph - N/A   Haze
3:00 PM 78.8 °F 50.0 °F 36% 29.92 in 2.2 mi NW 8.1 mph - N/A   Haze
4:00 PM 77.0 °F 51.8 °F 41% 29.95 in 2.2 mi West 4.6 mph - N/A   Haze
4:30 PM 77.0 °F 50.0 °F 39% 29.92 in 2.2 mi Variable 4.6 mph - N/A   Haze
5:00 PM 75.2 °F 50.0 °F 41% 29.92 in 2.2 mi WNW 4.6 mph - N/A   Haze
5:30 PM 71 °F 51 °F 38% 29.92 in 1 mi Calm Calm - -   Haze
5:30 PM 71.6 °F 51.8 °F 50% 29.95 in 2.2 mi Calm Calm - N/A   Haze
6:00 PM 69.8 °F 51.8 °F 53% 29.95 in 2.2 mi Calm Calm - N/A   Haze
7:00 PM 64.4 °F 53.6 °F 68% 29.98 in 1.9 mi Calm Calm - N/A   Haze
7:30 PM 66.2 °F 53.6 °F 64% 29.98 in 1.9 mi Calm Calm - N/A   Haze
8:00 PM 64.4 °F 53.6 °F 68% 29.98 in 1.9 mi Calm Calm - N/A   Haze
8:30 PM 62 °F 54 °F 67% 29.98 in 1 mi Calm Calm - -   Haze
8:30 PM 62.6 °F 53.6 °F 72% 29.98 in 1.9 mi Calm Calm - N/A   Haze
9:00 PM 62.6 °F 53.6 °F 72% 29.98 in 1.9 mi Calm Calm - N/A   Haze
9:30 PM 60.8 °F 55.4 °F 82% 29.98 in 1.9 mi Calm Calm - N/A   Haze
10:00 PM 59.0 °F 55.4 °F 88% 29.98 in 1.9 mi Calm Calm - N/A   Haze
10:30 PM 59.0 °F 59.0 °F 100% 29.98 in 1.9 mi Calm Calm - N/A   Partly Cloudy
11:00 PM 57.2 °F 57.2 °F 100% 29.98 in 1.9 mi Calm Calm - N/A   Partly Cloudy
11:30 PM 56 °F 56 °F 100% 29.98 in 1 mi Calm Calm - -   Mist
11:30 PM 55.4 °F 55.4 °F 100% 29.98 in 1.9 mi Calm Calm - N/A   Partly Cloudy